Вернуться в каталог

FENGYUN 1C DEB

АктивенSSO
NORAD 31007·DEBRIS·🇨🇳 China

Запущен May 10, 1999 с Taiyuan Satellite Launch Center

Loading…

Ближайшие Пролёты (ближайшие 24 часа)

TLE

СвежийSource: Space-Track

Эпоха: Sep 13, 2026, 22:25 UTC

1 31007U 99025BCZ 26256.93451932  .00005204  00000-0  98382-3 0  9997
2 31007  98.1019 247.9781 0058070 254.3361 105.1429 14.63730425 21069

Отслеживайте FENGYUN 1C DEB в реальном времени с AllMySat

Download on the App Store